Location: Cahoon Acres
(40.8736°N, 111.8994°W)
Time: 05:40:59
(UTC+00:00)

SR - Visible Passes

Search period start: 06 June 2020 00:00
Search period end: 16 June 2020 00:00
Orbit: 582 x 874 km, 66.7° (Epoch: 05 June)

Date Brightness Start Highest point End Pass type
(mag) Time Alt. Az. Time Alt. Az. Time Alt. Az.
06 Jun ? 05:43:10 10° NNW 05:47:25 56° ENE 05:47:48 54° E visible
06 Jun ? 07:27:04 10° W 07:27:12 10° W 07:27:12 10° W visible
07 Jun ? 04:53:52 10° N 04:57:33 27° NE 04:59:19 20° E visible
07 Jun ? 06:35:50 10° NW 06:38:42 26° W 06:38:42 26° W visible
08 Jun ? 04:05:08 10° N 04:07:30 14° NE 04:09:49 10° ENE visible
08 Jun ? 05:45:45 10° NW 05:50:00 67° WSW 05:50:14 66° SW visible
09 Jun ? 04:56:06 10° NNW 05:00:19 52° ENE 05:01:49 34° ESE visible
09 Jun ? 06:39:43 10° WNW 06:41:13 13° W 06:41:13 13° W visible
10 Jun ? 04:06:52 10° N 04:10:27 25° NE 04:13:25 13° ESE visible
10 Jun ? 05:48:42 10° NW 05:52:27 31° WSW 05:52:49 30° WSW visible
11 Jun ? 04:58:39 10° NNW 05:02:56 73° WSW 05:04:29 38° SSE visible
12 Jun ? 04:09:04 10° NNW 04:13:13 48° ENE 04:16:10 18° SE visible
12 Jun ? 05:52:24 10° WNW 05:54:47 15° WSW 05:55:34 14° WSW visible
13 Jun ? 05:01:33 10° NW 05:05:23 33° WSW 05:07:18 22° SSW visible
14 Jun ? 04:11:34 10° NNW 04:15:51 79° WSW 04:19:05 17° SSE visible
15 Jun ? 05:05:08 10° WNW 05:07:44 16° WSW 05:10:19 10° SW visible
